STARLINK-34517 (64595 NORAD) Tracking and Keplerian Element Data

This shows tracking and keplerian element data for the satellite.

Feedback or suggestion? Click here.




ElementValue
Catalog64595
NameSTARLINK-34517
Epoch Orbit2855
Epoch Day354.23641978
Epoch Year2025
RAAN345.471
Inclination53.1613
Eccentricity0.0001199
Argument of Perigee101.0558
Mean Anonmoly259.0582
Mean Motion15.39627157
Decay Rate0.00030601
L11 64595U 25137B 25354.23641978 .00030601 00000+0 77175-3 0 9995
L22 64595 53.1613 345.4710 0001199 101.0558 259.0582 15.39627157 28551



Live tracking and technical data element details for STARLINK-34517 (NORAD 64595). STARLINK-34517 can be tracked NOW for your location showing map with azimuth and elevation plus other details from your city location.







IsCatalogInMostPopularTable: catalog: 64595, numindb: 3
Update: records affected: 1



GetName: 64595 STARLINK-34517

Hit Count: updated at: Sun, 08 Feb 2026 07:38:43 GMT